Location: Unspecified
(0.0000°N, 0.0000°E)
Time: 13:52:45
(UTC+00:00)

Altair - Pass Details

Date: 02 November 2021
Orbit: 1502 x 1682 km, 47.2° (Epoch: 26 November)

Event Time Altitude Azimuth Distance (km) Brightness Sun altitude
Rises 09:26:37 0° 314° (NW) 4,849 9.8 53.0°
Reaches altitude 10° 09:29:44 10° 312° (NW) 3,883 9.4 53.7°
Maximum altitude 09:39:39 68° 231° (SW) 1,780 8.7 56.0°
Drops below altitude 10° 09:49:45 10° 149° (SSE) 3,942 10.2 58.2°
Sets 09:52:57 0° 146° (SE) 4,925 10.6 58.9°
